Weather History for KTVL - December, 2012

Change the Weather History Date:

Sunday, December 30, 2012

  Actual Average Record
Temperature  
Mean Temperature 15 °F 29 °F  
Max Temperature 29 °F 43 °F 53 °F (1998)
Min Temperature 0 °F 16 °F -9 °F (1988)
Degree Days  
Heating Degree Days 50 36  
Month to date heating degree days 1053 1056  
Since 1 July heating degree days 2811 3149  
Cooling Degree Days 0 0  
Month to date cooling degree days 0 0  
Year to date cooling degree days 30 31  
Moisture  
Dew Point 13 °F    
Average Humidity 67    
Maximum Humidity 84    
Minimum Humidity 50    
Precipitation  
Precipitation 0.03 in - 1.91 in (2005)
Month to date precipitation 5.36  
Year to date precipitation 21.49  
Sea Level Pressure  
Sea Level Pressure 29.99 in    
Wind  
Wind Speed 2 mph (East)    
Max Wind Speed 13 mph    
Max Gust Speed 17 mph    
Visibility 6 miles    
Events Snow    
T = Trace of Precipitation, MM = Missing Value Source: NWS Daily Summary

Daily Weather History Graph

Daily Weather History Graph

Search for Another Location

Airport or City:

Trip Planner

Search our weather history database for the weather conditions in past years. The results will help you decide how hot, cold, wet, or windy it might be!

Date:

Astronomy

Dec. 30, 2012 Rise Set
Actual Time 7:18 AM PST 4:47 PM PST
Civil Twilight 6:48 AM PST 5:17 PM PST
Nautical Twilight 6:15 AM PST 5:50 PM PST
Astronomical Twilight 5:42 AM PST 6:23 PM PST
Moon 7:22 PM PST (12/30) 8:31 AM PST (12/30)
Length of Visible Light 10h 28m
Length of Day
9h 29m
Waning Gibbous, 95% of the Moon is Illuminated
Dec 30
Waning Gibbous
Jan 4
Last Quarter
Jan 11
New
Jan 18
First Quarter
Jan 26
Full

Hourly Weather History & Observations

Time (PST) Temp. Windchill Dew Point Humidity Pressure Visibility Wind Dir Wind Speed Gust Speed Precip Events Conditions
12:53 AM 19.0 °F - 15.1 °F 85% 29.96 in 10.0 mi Calm Calm - N/A   Overcast
1:53 AM 19.0 °F - 15.1 °F 85% 29.97 in 10.0 mi Calm Calm - N/A   Overcast
2:53 AM 19.0 °F - 15.1 °F 85% 29.98 in 10.0 mi Calm Calm - N/A   Overcast
3:33 AM 19.4 °F - 14.0 °F 80% 29.92 in 2.5 mi Calm Calm - 0.00 in Snow Light Snow
3:40 AM 19.4 °F - 15.8 °F 86% 29.92 in 2.5 mi Calm Calm - 0.00 in Snow Light Snow
3:53 AM 19.9 °F - 15.1 °F 81% 29.98 in 1.5 mi Calm Calm - 0.00 in Snow Light Snow
4:07 AM 19.4 °F - 15.8 °F 86% 29.91 in 2.5 mi Calm Calm - 0.00 in Snow Light Snow
4:17 AM 19.4 °F - 15.8 °F 86% 29.90 in 1.2 mi Calm Calm - 0.00 in Snow Light Snow
4:53 AM 19.9 °F - 16.0 °F 85% 29.97 in 1.5 mi Calm Calm - 0.01 in Snow Light Snow
5:30 AM 19.4 °F 14.3 °F 15.8 °F 86% 29.89 in 2.5 mi SSW 3.5 mph - 0.00 in Snow Light Snow
5:53 AM 21.0 °F 16.2 °F 16.0 °F 81% 29.96 in 3.0 mi South 3.5 mph - 0.00 in Snow Light Snow
5:57 AM 21.2 °F 14.9 °F 15.8 °F 80% 29.89 in 2.5 mi South 4.6 mph - 0.00 in Snow Light Snow
6:07 AM 19.4 °F 12.8 °F 15.8 °F 86% 29.89 in 3.0 mi South 4.6 mph - 0.00 in Snow Light Snow
6:23 AM 19.4 °F 14.3 °F 15.8 °F 86% 29.90 in 3.0 mi SSW 3.5 mph - 0.00 in Snow Light Snow
6:44 AM 21.2 °F - 15.8 °F 80% 29.90 in 2.5 mi Calm Calm - 0.00 in Snow Light Snow
6:53 AM 21.0 °F - 16.0 °F 81% 29.97 in 2.0 mi Calm Calm - 0.01 in Snow Light Snow
7:00 AM 21.2 °F - 17.6 °F 86% 29.90 in 1.2 mi Calm Calm - 0.00 in Snow Light Snow
7:12 AM 21.2 °F - 17.6 °F 86% 29.90 in 3.0 mi Calm Calm - 0.00 in Snow Light Snow
7:21 AM 21.2 °F 16.4 °F 17.6 °F 86% 29.90 in 8.0 mi SSW 3.5 mph - 0.00 in Snow Light Snow
7:43 AM 23.0 °F 17.0 °F 17.6 °F 80% 29.91 in 2.5 mi Variable 4.6 mph - 0.00 in Snow Light Snow
7:53 AM 24.1 °F 19.7 °F 17.1 °F 75% 29.98 in 1.8 mi Variable 3.5 mph - 0.00 in Snow Light Snow
8:05 AM 24.8 °F 20.5 °F 17.6 °F 74% 29.92 in 0.5 mi Variable 3.5 mph - 0.01 in Snow Snow
8:14 AM 24.8 °F 19.1 °F 15.8 °F 69% 29.92 in 2.5 mi Variable 4.6 mph - 0.01 in Snow Light Snow
8:17 AM 24.8 °F 20.5 °F 15.8 °F 69% 29.92 in 5.0 mi Variable 3.5 mph - 0.01 in Snow Light Snow
8:28 AM 24.8 °F 16.9 °F 15.8 °F 69% 29.93 in 10.0 mi ESE 6.9 mph - 0.01 in   Overcast
8:53 AM 26.1 °F - 15.1 °F 63% 30.00 in 10.0 mi Calm Calm - 0.01 in   Overcast
9:53 AM 26.1 °F 20.5 °F 14.0 °F 60% 30.04 in 10.0 mi Variable 4.6 mph - N/A   Mostly Cloudy
10:14 AM 26.6 °F 21.2 °F 12.2 °F 55% 29.97 in 10.0 mi Variable 4.6 mph - N/A   Mostly Cloudy
10:53 AM 28.9 °F 19.2 °F 14.0 °F 54% 30.04 in 10.0 mi NNE 11.5 mph - N/A   Mostly Cloudy
11:04 AM 26.6 °F 17.5 °F 15.8 °F 64% 29.98 in 10.0 mi NNE 9.2 mph - 0.00 in   Mostly Cloudy
11:53 AM 28.0 °F 19.3 °F 15.1 °F 58% 30.02 in 10.0 mi NNE 9.2 mph - 0.00 in   Mostly Cloudy
12:17 PM 28.4 °F 19.7 °F 14.0 °F 55% 29.95 in 10.0 mi NNE 9.2 mph - N/A   Scattered Clouds
12:53 PM 28.0 °F 20.8 °F 12.9 °F 53% 30.01 in 10.0 mi NNE 6.9 mph - N/A   Clear
1:53 PM 28.0 °F 19.3 °F 12.9 °F 53% 30.01 in 10.0 mi NNE 9.2 mph - N/A   Partly Cloudy
2:53 PM 27.0 °F 21.6 °F 12.0 °F 53% 30.02 in 10.0 mi NNE 4.6 mph - N/A   Clear
3:53 PM 24.1 °F 16.0 °F 12.0 °F 60% 30.04 in 10.0 mi ENE 6.9 mph - N/A   Clear
4:53 PM 21.9 °F 13.4 °F 12.0 °F 66% 30.06 in 10.0 mi ENE 6.9 mph - N/A   Mostly Cloudy
5:53 PM 21.0 °F 12.4 °F 10.9 °F 65% 30.09 in 10.0 mi ENE 6.9 mph - N/A   Clear
6:53 PM 14.0 °F - 8.1 °F 77% 30.15 in 10.0 mi Calm Calm - N/A   Clear
7:53 PM 8.1 °F 1.4 °F 3.9 °F 83% 30.18 in 10.0 mi Variable 3.5 mph - N/A   Clear
8:53 PM 8.1 °F 1.4 °F 1.9 °F 76% 30.18 in 10.0 mi South 3.5 mph - N/A   Clear
9:53 PM 7.0 °F - 1.9 °F 80% 30.18 in 10.0 mi Calm Calm - N/A   Clear
10:53 PM 5.0 °F -4.1 °F -0.9 °F 76% 30.20 in 8.0 mi Variable 4.6 mph - N/A   Clear
11:53 PM 3.9 °F - -0.9 °F 80% 30.21 in 8.0 mi Calm Calm - N/A   Clear